Wind_Speed
41 41 41 40 41 42 44 46 47 48 48 48 47 47 47 47 48 49 48 48 46 44 42 41 40 39 38 38 38 38 38 39 40 40 40 40 40 40 40 40 40 40 39 39
39 39 38 38 39 41 42 44 45 46 46 46 47 47 46 47 47 47 47 47 47 45 43 42 41 40 39 38 38 39 39 40 40 41 41 42 42 43 42 42 42 41 41 41
37 37 37 38 39 39 41 42 43 43 43 43 44 46 46 46 47 47 47 47 46 46 44 43 42 40 39 39 39 39 39 40 41 42 42 43 44 44 43 43 43 43 44 44
35 35 36 36 37 38 39 40 41 41 42 42 42 44 45 45 46 47 46 46 46 45 44 43 42 41 40 40 39 39 40 40 41 42 43 44 44 44 44 44 44 45 46 46
33 33 33 34 34 35 35 36 37 38 40 41 41 42 42 43 43 45 45 45 45 44 44 43 42 42 41 40 40 40 40 41 41 42 43 44 44 44 45 45 45 46 47 48
31 31 32 32 32 32 32 33 33 35 37 39 40 40 39 40 41 42 43 44 43 43 43 42 42 41 41 40 40 40 40 41 41 42 43 43 43 44 45 45 46 47 48 49
29 30 30 30 31 31 30 30 30 32 35 37 37 37 37 36 37 39 40 41 41 41 41 41 41 41 40 40 39 39 40 40 41 41 42 42 43 44 45 45 46 47 48 49
26 28 28 29 29 29 29 29 30 30 31 32 33 34 34 33 34 35 37 38 38 39 39 40 40 40 40 40 39 40 40 40 40 40 41 42 43 44 44 46 47 48 49 51
22 25 26 27 27 27 27 27 28 28 28 29 30 31 31 30 31 32 33 34 35 35 36 37 37 38 38 38 38 38 38 38 38 39 40 41 42 43 44 46 47 49 51 53
20 22 23 24 26 26 26 25 26 26 25 25 27 27 27 27 28 29 31 32 32 33 33 34 34 35 35 36 36 36 36 36 37 38 39 40 42 43 44 46 48 50 52 54
19 20 21 22 23 24 26 25 25 24 24 23 24 25 24 25 27 28 29 30 30 31 31 31 32 32 33 33 33 34 34 35 37 38 39 41 42 43 45 47 49 51 53 55
18 19 20 20 21 22 23 23 24 24 23 23 22 22 23 24 25 26 27 27 28 28 29 30 30 30 31 31 32 33 34 35 36 37 39 40 41 43 45 47 49 51 52 53
16 17 19 19 20 20 21 22 22 22 22 22 22 22 23 23 24 24 24 25 25 26 27 28 28 29 30 30 31 32 33 34 35 36 37 38 40 41 43 45 46 48 49 50
15 16 17 17 17 18 19 21 21 20 20 21 21 21 22 22 22 23 23 23 24 25 26 27 27 28 29 30 31 31 32 32 33 34 35 36 37 39 40 41 42 43 44 45
13 15 16 15 16 17 18 19 19 19 19 20 21 21 21 21 21 22 22 22 23 24 25 26 27 28 28 28 28 29 29 29 30 31 32 33 34 35 36 36 37 38 38 38
13 14 15 15 15 16 17 17 17 18 19 19 20 20 19 19 19 20 21 21 22 23 24 25 26 26 26 25 25 25 26 26 27 28 29 29 30 30 30 31 32 32 31 31
12 13 15 15 15 15 16 16 17 17 18 19 19 19 18 17 18 19 19 20 21 22 23 23 23 24 23 23 23 23 24 24 25 25 25 25 25 25 25 25 25 25 26 25
13 14 14 15 16 16 15 16 17 17 17 18 18 19 18 18 18 18 19 20 20 21 20 20 20 20 21 21 22 22 22 22 21 21 21 21 21 21 20 20 20 20 20 19
13 14 14 15 16 15 16 16 17 17 18 18 18 19 19 18 18 18 18 19 19 18 18 18 18 18 19 20 20 20 19 19 18 18 18 17 17 17 17 16 16 16 16 15
13 14 14 15 16 16 16 17 17 17 18 18 18 19 19 18 19 18 18 18 18 18 18 18 18 18 18 18 17 18 18 17 16 16 16 15 15 15 15 15 14 14 14 13
14 14 14 15 16 17 17 17 17 18 18 18 18 18 18 18 18 18 17 18 18 18 18 17 17 17 17 17 16 16 15 15 14 14 14 14 14 14 14 13 13 13 14 14
14 14 15 16 16 17 18 18 18 18 18 18 18 18 18 18 18 17 17 17 17 17 17 17 17 16 16 16 16 15 14 14 14 13 13 13 13 13 13 14 14 14 13 13
14 15 15 16 17 17 17 18 18 18 19 19 18 18 18 17 17 17 17 16 16 16 16 16 16 16 15 15 15 15 14 14 14 14 13 13 13 13 13 14 14 14 14 14
14 15 15 16 16 16 17 17 17 18 19 19 20 19 19 18 18 17 17 16 16 15 15 15 15 15 15 14 14 14 14 14 13 13 13 13 13 14 14 14 13 14 14 15
14 15 15 16 17 17 17 17 18 18 19 19 20 20 19 19 19 18 17 17 16 16 16 15 15 15 14 14 14 14 14 13 13 13 13 13 14 14 13 13 14 14 15 17
14 15 16 17 18 18 18 18 19 19 19 19 20 20 20 19 19 19 18 18 17 17 16 15 15 15 15 15 14 14 14 14 14 14 14 14 15 14 14 15 15 16 18 19
Wind_Direction
204 206 209 210 212 214 215 216 217 220 221 222 223 223 222 223 225 227 230 232 234 235 235 236 236 237 239 241 244 246 249 251 254 256 258 260 261 262 263 265 266 267 268 270
201 204 205 208 211 213 214 215 217 219 220 222 223 223 223 224 225 227 230 232 235 236 238 239 239 239 240 242 245 247 250 252 254 256 258 259 260 262 263 265 267 268 269 270
199 200 203 206 208 211 213 215 218 220 221 222 223 224 224 224 226 227 230 233 235 237 239 241 242 243 243 245 247 249 251 254 255 257 258 259 261 263 264 265 266 266 267 267
195 197 201 204 207 210 213 214 218 220 221 223 223 225 225 226 227 228 230 233 236 238 241 243 245 246 247 248 250 251 253 254 255 256 258 259 261 262 263 263 264 265 266 268
193 195 198 202 206 208 211 213 217 219 222 224 225 227 226 228 229 229 231 233 236 239 242 244 246 248 249 250 252 253 254 255 256 257 259 260 261 262 263 264 265 266 267 268
191 193 197 201 203 207 210 213 216 219 221 224 225 228 229 229 230 231 232 234 237 240 242 245 246 248 250 251 252 254 255 256 257 258 259 260 262 263 264 265 266 266 267 268
188 193 196 199 202 204 207 210 213 216 219 223 224 228 230 229 230 232 233 235 237 240 242 245 246 248 250 252 254 255 255 257 258 259 260 261 263 264 265 266 267 268 268 268
184 190 194 196 201 205 206 207 210 215 219 222 223 227 229 229 230 231 233 235 237 239 241 244 246 248 250 252 254 255 257 258 260 261 262 264 265 266 267 268 268 269 269 269
185 189 191 195 199 202 204 206 209 214 217 220 222 225 226 226 227 229 231 233 235 237 240 242 245 247 249 252 254 256 258 260 262 264 265 266 268 269 270 271 271 271 271 271
187 189 192 197 201 204 205 207 210 213 215 219 221 222 224 224 225 226 228 230 232 235 238 241 243 246 249 251 254 257 260 262 264 266 268 270 272 273 273 274 274 274 274 274
190 192 195 199 202 205 208 210 213 215 216 218 220 221 221 222 223 224 226 228 230 233 236 239 242 245 248 252 255 258 261 264 267 270 272 273 275 276 277 277 278 278 278 277
190 195 199 201 204 206 208 210 213 215 216 218 220 220 219 220 221 222 224 226 229 231 235 238 242 246 250 254 257 261 264 267 270 272 274 275 276 278 279 280 280 280 280 279
189 193 198 202 206 207 209 211 212 213 213 214 216 218 217 218 219 221 223 225 227 231 235 239 244 249 253 257 260 263 266 269 271 273 275 277 278 280 283 283 284 284 283 282
195 196 199 202 204 206 209 210 212 211 210 210 213 215 216 217 218 220 222 225 229 234 238 243 247 251 256 259 262 265 268 270 273 275 277 279 281 284 285 287 287 287 285 284
200 200 201 201 203 204 207 209 210 210 208 209 212 215 217 217 218 221 225 230 235 239 243 248 252 255 258 260 263 266 269 272 274 277 279 281 284 287 288 289 289 290 289 287
205 203 202 203 203 204 205 206 208 208 208 209 214 218 219 220 223 226 230 235 240 244 247 250 252 255 257 260 263 267 271 274 276 280 283 284 287 291 292 292 292 292 292 291
208 205 205 206 205 204 205 206 208 209 209 213 218 223 224 226 229 233 236 240 244 246 248 251 253 254 256 261 265 271 274 276 278 282 285 288 290 293 297 298 297 297 297 297
211 211 211 210 209 211 208 210 212 214 216 219 224 228 231 233 237 240 242 244 246 247 249 251 253 255 258 263 268 272 273 276 279 284 288 291 292 295 299 301 301 300 301 302
216 216 217 216 215 215 215 216 218 220 223 227 231 234 236 239 242 244 245 247 247 248 249 251 254 258 263 266 268 270 273 276 279 285 290 292 294 297 301 304 306 305 304 304
219 219 220 220 220 221 221 222 224 226 229 231 234 237 240 243 245 245 246 248 247 248 248 252 257 262 264 266 266 269 272 274 277 284 289 293 295 298 302 304 305 306 305 305
223 223 224 224 225 227 228 228 228 230 233 234 235 238 241 243 244 245 248 249 248 248 250 254 258 262 263 263 265 268 269 271 277 282 289 295 298 298 299 302 307 307 305 306
226 226 226 227 229 229 231 231 233 234 235 236 237 238 239 241 243 244 247 248 247 248 252 254 257 259 260 261 264 266 267 269 274 279 287 293 297 300 300 301 303 306 309 309
230 230 230 231 232 233 233 234 235 235 235 236 237 237 238 241 243 244 245 245 245 247 251 253 254 256 258 260 261 263 267 269 272 277 283 289 293 296 300 303 304 306 309 310
232 231 232 233 234 234 234 235 236 236 236 236 236 237 240 241 242 243 245 245 245 248 251 253 253 256 257 259 260 263 266 268 269 273 281 287 291 295 299 303 305 308 309 310
234 233 234 235 236 236 236 237 237 238 238 238 238 237 239 241 242 243 243 245 246 249 252 253 254 255 256 258 260 263 266 266 268 273 280 287 290 292 296 299 303 306 309 311
236 236 237 238 240 241 240 239 239 240 241 240 239 239 241 242 241 241 242 244 247 251 251 253 254 254 256 258 260 263 265 265 267 273 281 287 289 290 293 297 301 306 309 311
Height
5620 5629 5637 5647 5656 5663 5670 5677 5683 5690 5696 5703 5710 5716 5723 5729 5735 5740 5745 5751 5756 5762 5767 5771 5776 5780 5783 5786 5789 5791 5792 5794 5794 5796 5797 5798 5799 5799 5800 5800 5800 5800 5800 5800
5617 5626 5636 5643 5650 5657 5663 5670 5676 5683 5689 5696 5703 5709 5716 5722 5728 5733 5738 5744 5749 5754 5759 5764 5768 5772 5776 5779 5781 5783 5785 5786 5787 5788 5789 5790 5790 5791 5792 5792 5792 5792 5792 5792
5614 5624 5631 5638 5645 5652 5659 5666 5672 5678 5685 5691 5697 5703 5709 5715 5720 5726 5731 5736 5741 5747 5751 5756 5760 5764 5768 5771 5774 5776 5777 5778 5779 5780 5781 5781 5782 5783 5784 5784 5784 5783 5783 5782
5611 5619 5627 5634 5641 5648 5655 5660 5666 5673 5679 5684 5691 5696 5702 5707 5713 5719 5724 5729 5734 5739 5744 5748 5752 5756 5759 5763 5765 5767 5769 5770 5771 5772 5772 5773 5774 5774 5775 5775 5774 5774 5773 5773
5609 5616 5624 5631 5638 5644 5650 5656 5662 5668 5673 5680 5685 5690 5696 5701 5706 5712 5718 5723 5727 5732 5736 5740 5744 5747 5751 5754 5756 5758 5760 5761 5762 5763 5764 5764 5765 5765 5765 5765 5765 5764 5763 5763
5608 5615 5621 5628 5634 5640 5646 5652 5658 5663 5668 5674 5679 5684 5690 5695 5700 5705 5710 5715 5720 5724 5728 5732 5735 5739 5742 5745 5747 5749 5751 5752 5753 5754 5754 5755 5755 5756 5755 5755 5755 5754 5753 5752
5606 5612 5619 5625 5631 5637 5643 5649 5654 5658 5663 5669 5674 5678 5684 5689 5694 5698 5703 5708 5712 5716 5720 5723 5727 5730 5733 5735 5738 5739 5741 5742 5743 5744 5744 5745 5745 5745 5745 5744 5744 5743 5742 5741
5605 5612 5617 5623 5629 5634 5640 5645 5651 5656 5660 5664 5668 5672 5678 5683 5687 5691 5696 5700 5704 5708 5712 5715 5718 5721 5724 5726 5728 5730 5731 5732 5733 5734 5734 5735 5735 5734 5734 5733 5732 5731 5730 5729
5606 5611 5616 5622 5627 5632 5636 5641 5647 5652 5655 5659 5663 5668 5673 5676 5681 5685 5689 5693 5697 5701 5704 5707 5710 5712 5715 5717 5719 5720 5721 5723 5723 5724 5724 5724 5724 5723 5723 5721 5720 5719 5717 5715
5606 5611 5615 5620 5625 5629 5634 5639 5643 5647 5651 5655 5659 5663 5667 5671 5675 5679 5682 5686 5690 5693 5696 5699 5702 5704 5706 5708 5710 5711 5713 5713 5714 5714 5714 5713 5712 5711 5710 5709 5707 5705 5703 5701
5607 5611 5615 5619 5623 5627 5632 5636 5640 5644 5648 5652 5655 5661 5662 5666 5669 5673 5676 5680 5683 5686 5689 5692 5694 5696 5698 5700 5702 5703 5704 5704 5704 5704 5703 5703 5701 5700 5698 5696 5694 5691 5689 5685
5607 5611 5614 5618 5622 5625 5629 5633 5637 5641 5645 5648 5651 5658 5657 5661 5664 5667 5671 5674 5677 5680 5682 5685 5687 5689 5691 5693 5694 5695 5695 5695 5695 5695 5694 5692 5691 5689 5687 5684 5681 5677 5674 5670
5607 5610 5613 5617 5621 5624 5626 5630 5633 5637 5641 5644 5648 5654 5653 5656 5659 5663 5666 5669 5671 5674 5676 5678 5681 5683 5684 5685 5686 5687 5687 5687 5686 5685 5684 5682 5680 5678 5675 5671 5667 5663 5659 5655
5607 5610 5613 5617 5619 5621 5624 5628 5631 5634 5638 5641 5644 5647 5649 5652 5656 5659 5661 5664 5666 5668 5671 5673 5674 5676 5677 5678 5678 5679 5679 5678 5677 5676 5674 5672 5670 5667 5663 5659 5655 5650 5645 5641
5606 5609 5611 5614 5617 5619 5622 5625 5628 5632 5635 5638 5641 5643 5646 5649 5652 5654 5657 5659 5661 5663 5665 5666 5668 5669 5670 5671 5671 5671 5671 5670 5669 5667 5665 5663 5660 5656 5652 5648 5643 5639 5634 5629
5605 5607 5610 5612 5615 5617 5620 5623 5626 5629 5632 5635 5637 5640 5642 5645 5648 5650 5652 5654 5656 5658 5659 5660 5661 5662 5663 5664 5664 5664 5663 5662 5660 5658 5656 5653 5650 5646 5642 5638 5633 5629 5624 5620
5604 5606 5609 5611 5613 5616 5619 5621 5624 5626 5629 5632 5634 5637 5639 5641 5643 5646 5648 5649 5651 5652 5653 5654 5655 5656 5656 5657 5657 5656 5655 5654 5652 5650 5648 5645 5641 5638 5633 5629 5625 5621 5617 5613
5602 5604 5607 5609 5612 5614 5619 5619 5621 5623 5626 5628 5630 5633 5635 5637 5639 5641 5642 5644 5645 5646 5647 5648 5649 5649 5650 5650 5650 5649 5648 5647 5645 5643 5640 5637 5634 5630 5627 5623 5619 5615 5612 5608
5600 5602 5604 5607 5609 5611 5614 5616 5618 5620 5623 5625 5627 5629 5630 5632 5634 5636 5637 5638 5639 5641 5641 5642 5643 5643 5644 5643 5643 5642 5641 5640 5638 5636 5634 5631 5628 5625 5621 5618 5614 5611 5608 5605
5597 5599 5602 5604 5606 5608 5612 5613 5614 5618 5619 5621 5622 5624 5626 5628 5630 5631 5632 5633 5634 5635 5636 5637 5637 5638 5638 5637 5637 5636 5635 5634 5633 5631 5628 5626 5623 5620 5617 5614 5611 5608 5605 5602
5595 5596 5598 5600 5602 5605 5607 5608 5611 5614 5616 5617 5618 5620 5621 5623 5625 5626 5627 5628 5629 5630 5631 5631 5632 5632 5632 5632 5631 5631 5630 5629 5627 5626 5623 5621 5618 5616 5613 5610 5607 5605 5602 5600
5591 5593 5595 5596 5599 5603 5602 5604 5607 5609 5610 5612 5613 5615 5617 5618 5619 5621 5622 5623 5624 5624 5625 5626 5626 5626 5626 5626 5626 5625 5625 5624 5622 5621 5619 5617 5615 5612 5610 5607 5604 5602 5599 5597
5588 5590 5591 5594 5597 5597 5598 5600 5602 5604 5605 5607 5609 5611 5612 5613 5615 5616 5617 5618 5619 5620 5620 5621 5621 5621 5621 5621 5621 5620 5620 5619 5618 5616 5615 5613 5611 5609 5606 5604 5601 5599 5596 5594
5584 5586 5587 5589 5591 5592 5594 5595 5597 5599 5600 5602 5604 5606 5607 5608 5610 5611 5612 5613 5614 5615 5615 5616 5616 5616 5616 5616 5616 5615 5615 5614 5613 5612 5611 5609 5607 5605 5603 5600 5598 5596 5593 5591
5580 5582 5583 5584 5586 5588 5589 5591 5592 5594 5595 5597 5599 5600 5602 5603 5605 5606 5607 5608 5609 5610 5610 5611 5611 5612 5612 5611 5611 5611 5610 5609 5609 5608 5606 5605 5603 5601 5599 5597 5595 5592 5590 5588
5576 5578 5579 5580 5582 5583 5585 5586 5587 5589 5590 5592 5593 5595 5596 5598 5599 5601 5602 5603 5604 5605 5605 5606 5606 5607 5607 5607 5607 5606 5606 5605 5604 5603 5602 5601 5599 5597 5595 5593 5591 5588 5586 5583